Torna al catalogo

STARLINK-35155

AttivoComunicazioniVLEO
NORAD 65935·PAYLOAD·🇺🇸 United States

Lanciato Oct 8, 2025 da Vandenberg Space Force Base

Loading…

Prossimi Passaggi (prossime 24 ore)

TLE

AggiornatoSource: CelesTrak SupGP

Epoca: Sep 14, 2026, 21:21 UTC

1 65935C 25225AB  26257.89006944 -.00010412  00000+0 -30737-3 0  2575
2 65935  53.1591   3.8048 0001356  71.5632 108.5159 15.34420839    15

Traccia STARLINK-35155 in tempo reale con AllMySat

Download on the App Store